Вернуться в каталог

STARLINK-3195

АктивенСвязьVLEO
NORAD 49762·PAYLOAD·🇺🇸 United States

Запущен Dec 2, 2021 с Cape Canaveral Space Force Station

Loading…

Ближайшие Пролёты (ближайшие 24 часа)

TLE

СвежийSource: CelesTrak SupGP

Эпоха: Sep 14, 2026, 20:47 UTC

1 49762C 21115AQ  26257.86645833 -.00022467  00000+0 -66402-3 0  2573
2 49762  53.1610 355.7069 0001188  78.8610 258.6076 15.34391967    12

Отслеживайте STARLINK-3195 в реальном времени с AllMySat

Download on the App Store